TimeAKST,TemperatureF,Dew PointF,Humidity,Sea Level PressureIn,VisibilityMPH,Wind Direction,Wind SpeedMPH,Gust SpeedMPH,PrecipitationIn,Events,Conditions,WindDirDegrees,DateUTC
12:53 AM,6.1,1.9,83,30.18,8.0,Calm,Calm,-,N/A,Snow,Light Snow,0,2013-02-01 09:53:00
1:53 AM,7.0,1.9,80,30.19,9.0,Calm,Calm,-,N/A,Snow,Light Snow,0,2013-02-01 10:53:00
3:53 AM,5.0,1.9,87,30.21,10.0,Calm,Calm,-,N/A,,Overcast,0,2013-02-01 12:53:00
4:53 AM,-0.0,-2.9,88,30.21,10.0,Calm,Calm,-,N/A,,Mostly Cloudy,0,2013-02-01 13:53:00
5:53 AM,-7.1,-9.9,87,30.22,10.0,Calm,Calm,-,N/A,,Mostly Cloudy,0,2013-02-01 14:53:00
6:53 AM,-11.0,-15.0,83,30.22,10.0,NNE,3.5,-,N/A,,Scattered Clouds,30,2013-02-01 15:53:00
7:53 AM,-11.9,-15.0,86,30.20,10.0,Calm,Calm,-,N/A,,Scattered Clouds,0,2013-02-01 16:53:00
8:53 AM,-15.0,-18.0,86,30.19,10.0,NE,3.5,-,N/A,,Scattered Clouds,50,2013-02-01 17:53:00
9:53 AM,-11.9,-15.0,86,30.19,10.0,ENE,4.6,-,N/A,,Scattered Clouds,60,2013-02-01 18:53:00
10:53 AM,-8.0,-11.0,86,30.18,10.0,ENE,3.5,-,N/A,,Scattered Clouds,60,2013-02-01 19:53:00
11:53 AM,-2.0,-7.1,79,30.17,10.0,NE,6.9,-,N/A,,Scattered Clouds,50,2013-02-01 20:53:00
12:53 PM,6.1,1.0,80,30.15,10.0,East,4.6,-,N/A,,Scattered Clouds,80,2013-02-01 21:53:00
1:53 PM,5.0,1.0,84,30.16,10.0,East,4.6,-,N/A,,Mostly Cloudy,80,2013-02-01 22:53:00
2:53 PM,-2.9,-7.1,82,30.14,10.0,NNE,5.8,-,N/A,,Scattered Clouds,20,2013-02-01 23:53:00
3:53 PM,-0.9,-4.0,87,30.12,10.0,NNE,3.5,-,N/A,,Scattered Clouds,20,2013-02-02 00:53:00
4:53 PM,-6.0,-8.0,91,30.10,10.0,Calm,Calm,-,N/A,,Mostly Cloudy,0,2013-02-02 01:53:00
5:53 PM,-8.0,-11.9,83,30.09,10.0,NE,5.8,-,N/A,,Mostly Cloudy,40,2013-02-02 02:53:00
6:53 PM,-8.0,-11.9,83,30.07,10.0,NNE,6.9,-,N/A,,Mostly Cloudy,30,2013-02-02 03:53:00
7:53 PM,-5.1,-8.0,87,30.04,10.0,Calm,Calm,-,N/A,,Mostly Cloudy,0,2013-02-02 04:53:00
8:53 PM,-2.9,-8.0,79,30.01,10.0,NNE,5.8,-,N/A,,Mostly Cloudy,30,2013-02-02 05:53:00
9:53 PM,-4.0,-9.0,79,29.99,10.0,NE,6.9,-,N/A,,Mostly Cloudy,50,2013-02-02 06:53:00
10:53 PM,-4.0,-9.0,79,29.96,10.0,NNE,8.1,-,N/A,,Mostly Cloudy,20,2013-02-02 07:53:00
11:53 PM,-0.0,-5.1,79,29.94,10.0,NE,5.8,-,N/A,,Mostly Cloudy,40,2013-02-02 08:53:00